“In life, you're either a passenger or a pilot. It’s your choice.”

WELCOME TO YOUR AVIATION DREAM!

What's new Up There Icon

WHAT’S NEW HERE?

4000+ aviation terms, acronyms and definitions!
Make your study a little easier with the aviation glossaries that gather over 4000 terms and acronyms extracted from weather, communications, technical and more general topics…
Partnership Icon

PARTNESHIP ANNOUNCEMENT

I am proud to announce a partnership with nizul Logo, study partner of every pilot who wants to consolidate their ground school knowledge and master their written examination.

Try Me Icon

ALL YOURS FOR 30 MINUTES!

Not sure you’d get along with a freelance instructor? How about giving it a try with a 30 minute flight?
My treat! All free.

Resources Tool Box

STUDENT RESOURCES

As a registered student training with me, you get access to a whole lot of files, tools, documents, aviation glossaries, videos, quizzes, sample tests, etc… 

Control Tower Icon

QUESTIONS? CHECK F.A.Q.

In aviation, the only stupid question is the one you didn’t ask. And there is a big chance yours has already been answered in the FAQ. Check it out!

Brain Icon

ARE YOU WIRED FOR FLYING?

Flying an aircraft is usually not the most difficult part of the “problem” and it takes a certain mindset to deal with the other aspects of a flight. Find out wether…

THEY DID IT!

Meet those who refused to be the passengers of their lives, and learn about their experience.

QUICK FACTS

Aviation is a world of serious numbers.
Here are my own, and they count as much as the other ones.

0
YEARS OF
WISDOM
0
YEARS OF
SKY FUN
0
AMAZING
STUDENTS
0
HOURS OF
PURE EXCITEMENT

Grow some wings,
Come fly with me!

Vancouver Island Weather

METARs and TAFs.
VICTORIA INTL (CYYJ)
METAR:

CYYJ 161100Z 18003KT 180V260 20SM BKN130 BKN170 15/12 A3002 RMK AC5AC2 SLP167

TAF:

TAF CYYJ 161140Z 1612/1712 VRB03KT P6SM BKN150 FM161800 10008KT P6SM SCT150 BECMG 1705/1707 27006KT RMK NXT FCST BY 161800Z

NANAIMO (CYCD)
METAR:

CYCD 160400Z 00000KT 25SM FEW170 BKN210 20/15 A2998 RMK AC2CI4 LAST STFD OBS/NEXT 161300Z SLP154 DENSITY ALT 700FT

TAF:

TAF CYCD 151740Z 1518/1604 VRB03KT P6SM BKN250 BECMG 1520/1522 08006KT RMK NXT FCST BY 160000Z

LONG BEACH (CYAZ)
METAR:

CYAZ 160100Z 17003KT 15SM OVC019 17/16 A3006 RMK SC8 LAST STFD OBS/NXT 161300UTC SLP183 DENSITY ALT 200FT

TAF:

TAF AMD TAF AMD CYAZ 152213Z 1522/1601 18006KT P6SM SCT002 BKN240 TEMPO 1522/1601 2SM BR BKN002 RMK NXT FCST BY 161500Z

For more in-depth weather information, please, check Collaborative Flight Planning Service

For all Runway conditions in CYYJ, please check

IIDS Web View

Windy’s Forecast & Observations